Location: Kanchanaburi
(14.0170°N, 99.5330°E)
Time: 05:19:16
(UTC+07:00)

ISS - Visible Passes

Search period start: 14 November 2018 00:00
Search period end: 24 November 2018 00:00
Orbit: 402 x 409 km, 51.6° (Epoch: 14 November)

Date Brightness Start Highest point End Pass type
(mag) Time Alt. Az. Time Alt. Az. Time Alt. Az.
17 Nov -1.9 19:29:53 10° SSW 19:31:24 25° SSW 19:31:24 25° SSW visible
18 Nov -1.9 05:21:52 10° N 05:24:40 26° NE 05:27:29 10° ESE visible
18 Nov -2.5 18:38:24 10° S 18:41:06 24° SE 18:42:08 20° E visible
19 Nov -0.8 04:32:33 11° NE 04:32:33 11° NE 04:33:39 10° ENE visible
19 Nov -2.1 19:22:32 10° WSW 19:25:20 27° NW 19:25:34 26° NW visible
20 Nov -3.9 05:15:58 43° NW 05:16:54 73° SW 05:20:09 10° SSE visible
20 Nov -3.7 18:30:01 10° SW 18:33:15 76° NW 18:36:13 12° NNE visible
21 Nov -1.0 04:26:42 19° ESE 04:26:42 19° ESE 04:27:52 10° ESE visible
22 Nov -1.7 05:10:05 16° SSW 05:10:05 16° SSW 05:11:18 10° S visible
22 Nov -1.4 18:23:00 10° W 18:25:26 19° NW 18:27:53 10° N visible
